CZ-6A DEB, 55219

Orbit data source: Space-Track

CZ-6A DEB, 55219 is space debris in SSO originally from a launch on Fri, 11 Nov 2022 UTC launched from the Taiyaun Space Center, China (TSC). Debris objects in space refer to the collection of defunct objects orbiting the Earth. Examples of debris include non-operational satellites, rocket bodies, and fragments generated from explosions, collisions, or faulty payload assembly.

Loading next visibility...
Identifier
55219, 2022-151WL
Orbit
SSO
Country
Flag of CNCN / PRC
Related business
Manufacturer
SAST
Mission
Spacecraft
Bus & Motor
Unknown
Mass
Unknown
Launch date (UTC)
2022-11-11 (4 years ago)
Launch vehicle
Unknown
Launch site
Taiyaun Space Center, China (TSC)
Object type
Payload
Rocket body
Debris
Shape & HBR
Unknown shape, 0.1 m
Radar Cross Section
Medium (>0.1 m² and <1 m²)

Expand to show TLE details & history
Last TLE update: 7 hours ago

TLE from 7 hours ago
0 CZ-6A DEB
1 55219U 22151WL  26236.60195291  .00006427  00000-0  11871-2 0  9994
2 55219  98.6085 298.2680 0081126  87.7247 273.3240 14.63673146194510
Epoch: 2026-08-24T14:26Z
TLE epoch observation values (Epoch: 2026-08-24T14:26:48.731Z)
Latitude
-0.00002°
Longitude
108.68365°
Altitude
681.458 km
Speed
7.517 km/s
True Right ascension
19h 53m 04s
True Declination
0° 00' 00"
Sunlit
Object was in full shadow at epoch
Visualization orbit readout
Latitude
Unknown
Longitude
Unknown
Altitude
Unknown
Speed
Unknown
Apparent Right ascension
Unknown
Apparent Declination
Unknown
Sunlit
N/A
Visualization observer readout
Local Sidereal Time
12:11:06
Azimuth
Unknown
Elevation
Unknown
Doppler factor
Unknown
Orbital elements
Apogee altitude
735.681 km
Perigee altitude
621.187 km
Semi-major axis
7,056.571 km
Eccentricity
0.00811
Inclination
98.6085°
RAAN
298.268°
Arg. of periapsis
87.7247°
True anomaly
272.39542°
Mean anomaly
273.324°
Eccentric anomaly
272.85976°
Mean motion
3.66145 °/min
Orbital period
98.32 mins
BSTAR
0.0011871
Loading maneuver chart data...
Computing Atmospheric mass density...
Loading historical data...
Loading historical data...
Loading historical data...
Loading historical data...
Loading historical data...
Loading historical data...
Loading historical data...

Documentation

Showing up to 5 results
|